Flag for U.S.A. Weather past 2 weeks in Flint, Michigan, U.S.A.

Now
67 °F

Clear.


Feels Like: 67 °F
Forecast: 63 / 75 °F
Wind: 7 mph from South

Location: Bishop International Airport

Current Time: Aug 28, 2015 at 11:59:20 PM

Latest Report: Aug 28, 2015 at 10:53 PM


Visibility: 10 mi

Pressure: 30.13 "Hg

Humidity: 76%

Dew point: 59 °F

Location of FlintLocation

Historic Weather in Flint — Graph

°F

Flint temperature yesterday

Maximum temperature yesterday: 67 °F (at 5:00 PM)
Minimum temperature yesterday: 53 °F (at 10:53 PM)
Average temperature yesterday: 61 °F

Past Weeks' High & Low Weather Summary

 TemperatureHumidityPressure
High89 °F (Aug 16, 4:53 PM)93% (Aug 28, 5:53 AM)30.23 "Hg (Aug 28, 5:53 AM)
Low47 °F (Aug 28, 5:53 AM)39% (Aug 21, 3:53 PM)29.67 "Hg (Aug 20, 12:53 AM)
Average70 °F70%30.00 "Hg
* Reported Aug 13 9:53 PM — Aug 28 9:53 PM, Flint, Weather by CustomWeather, © 2015

Note: Actual official high and low records may vary slightly from our data, if they occured in-between our weather recording intervals... More about our weather records

Advertising

Flint weather history for previous 24 hours

 ConditionsComfort  
Time TempWeatherWind HumidityBarometerVisibility
9:53 PM
Fri, Aug 28
63 °FClear.5 mph84%30.13 "Hg10 mi
8:53 PM70 °FSunny.3 mph68%30.12 "Hg10 mi
7:53 PM73 °FSunny.3 mph64%30.11 "Hg10 mi
6:53 PM74 °FSunny.3 mph62%30.11 "Hg10 mi
5:53 PM76 °FSunny.7 mph50%30.13 "Hg10 mi
4:53 PM77 °FPassing clouds.6 mph50%30.13 "Hg10 mi
3:53 PM77 °FScattered clouds.6 mph50%30.14 "Hg10 mi
2:53 PM76 °FScattered clouds.7 mph52%30.15 "Hg10 mi
1:53 PM74 °FPartly sunny.7 mph56%30.17 "Hg10 mi
12:53 PM72 °FScattered clouds.No wind57%30.19 "Hg10 mi
11:53 AM71 °FOvercast.6 mph61%30.21 "Hg10 mi
10:53 AM68 °FSunny.9 mph68%30.21 "Hg10 mi
9:53 AM63 °FSunny.7 mph81%30.21 "Hg10 mi
8:53 AM58 °FSunny.3 mph87%30.21 "Hg4 mi
7:53 AM51 °FClear.No wind89%30.20 "Hg6 mi
6:53 AM49 °FFog.No wind90%30.21 "Hg3 mi
5:53 AM47 °FFog.No wind93%30.19 "Hg3 mi
4:53 AM49 °FClear.No wind90%30.18 "Hg8 mi
4:02 AM50 °FFog.3 mph89%30.17 "Hg0 mi
3:53 AM49 °FFog.3 mph90%30.18 "Hg1 mi
2:53 AM50 °FFog.No wind89%30.18 "Hg1 mi
2:00 AM49 °FFog.No wind86%30.18 "Hg1 mi
1:02 AM50 °FFog.No wind89%30.18 "Hg2 mi
11:53 PM
Thu, Aug 27
53 °FClear.No wind86%30.19 "Hg10 mi
Weather by CustomWeather, © 2015

See weather overviewHow to use our weather pages